TimeMDT,TemperatureF,Dew PointF,Humidity,Sea Level PressureIn,VisibilityMPH,Wind Direction,Wind SpeedMPH,Gust SpeedMPH,PrecipitationIn,Events,Conditions,WindDirDegrees,DateUTC
12:53 AM,57.0,53.1,87,30.02,10.0,Calm,Calm,-,N/A,,Clear,0,2013-07-19 06:53:00
1:53 AM,59.0,51.1,75,29.98,10.0,South,5.8,-,0.00,,Partly Cloudy,180,2013-07-19 07:53:00
2:53 AM,57.0,52.0,83,29.97,10.0,SSW,10.4,-,N/A,,Clear,200,2013-07-19 08:53:00
3:53 AM,55.0,51.1,86,30.04,10.0,SW,4.6,-,N/A,,Clear,230,2013-07-19 09:53:00
4:53 AM,53.1,51.1,93,30.06,10.0,South,5.8,-,N/A,,Clear,180,2013-07-19 10:53:00
5:53 AM,52.0,50.0,93,30.04,10.0,SW,8.1,-,N/A,,Clear,230,2013-07-19 11:53:00
6:53 AM,53.1,50.0,89,30.06,10.0,South,6.9,-,N/A,,Clear,170,2013-07-19 12:53:00
7:53 AM,59.0,51.1,75,30.06,10.0,South,8.1,-,N/A,,Clear,170,2013-07-19 13:53:00
8:53 AM,64.0,51.1,63,30.06,10.0,Variable,3.5,-,N/A,,Clear,0,2013-07-19 14:53:00
9:53 AM,68.0,48.9,50,30.04,10.0,Calm,Calm,-,N/A,,Clear,0,2013-07-19 15:53:00
10:53 AM,73.0,50.0,44,30.02,10.0,Variable,3.5,-,N/A,,Clear,0,2013-07-19 16:53:00
11:53 AM,75.0,48.0,38,30.01,10.0,SE,12.7,16.1,N/A,,Scattered Clouds,130,2013-07-19 17:53:00
12:53 PM,75.9,51.1,42,29.99,10.0,SE,13.8,23.0,N/A,,Scattered Clouds,130,2013-07-19 18:53:00
1:53 PM,75.9,50.0,40,29.96,10.0,SE,13.8,26.5,N/A,,Clear,140,2013-07-19 19:53:00
2:53 PM,75.9,50.0,40,29.95,10.0,SSE,13.8,21.9,N/A,,Clear,160,2013-07-19 20:53:00
3:53 PM,77.0,50.0,39,29.93,10.0,SE,18.4,25.3,N/A,,Clear,140,2013-07-19 21:53:00
4:53 PM,75.9,52.0,43,29.92,10.0,SE,20.7,27.6,N/A,,Clear,140,2013-07-19 22:53:00
5:53 PM,71.1,53.1,53,29.94,10.0,SE,19.6,28.8,N/A,,Mostly Cloudy,140,2013-07-19 23:53:00
6:06 PM,69.8,53.6,56,30.28,10.0,SE,13.8,27.6,N/A,Thunderstorm,Overcast,130,2013-07-20 00:06:00
6:32 PM,66.2,57.2,73,30.29,9.0,ESE,13.8,-,0.01,Rain,Light Rain,110,2013-07-20 00:32:00
6:53 PM,64.9,57.9,78,29.96,6.0,SE,19.6,28.8,0.01,Rain,Light Rain,140,2013-07-20 00:53:00
7:53 PM,64.9,55.0,70,29.95,10.0,SSE,20.7,29.9,0.01,,Partly Cloudy,160,2013-07-20 01:53:00
8:53 PM,62.1,55.0,78,29.94,10.0,South,12.7,-,N/A,,Clear,170,2013-07-20 02:53:00
9:53 PM,60.1,54.0,80,29.94,10.0,South,8.1,-,N/A,,Clear,180,2013-07-20 03:53:00
10:53 PM,59.0,53.1,81,29.92,10.0,SSE,9.2,-,N/A,,Clear,160,2013-07-20 04:53:00
11:53 PM,57.0,53.1,87,29.90,10.0,SSE,8.1,-,N/A,,Clear,160,2013-07-20 05:53:00